Regional Weather Roundup
Issued by NWS Wilmington, NC

Home | Current Version | Previous Version | Text Only | Print | Product List | Glossary On
Versions: 1 2 3 4 5 6 7 8 9 10 11 12 13 14 15 16 17 18 19 20 21 22 23 24 25 26 27 28 29 30 31 32 33 34 35 36 37 38 39 40 41 42 43 44 45 46 47 48 49 50
000
ASUS42 KILM 291410
RWRILM
RWRILM
REGIONAL HOURLY WEATHER ROUNDUP
NATIONAL WEATHER SERVICE WILMINGTON NC
1000 AM EDT TUE JUL 29 2014

NOTE: "FAIR" INDICATES FEW OR NO CLOUDS BELOW 12,000 FEET WITH NO
SIGNIFICANT WEATHER AND/OR OBSTRUCTIONS TO VISIBILITY.

...............WFO WILMINGTON COUNTY WARNING AREA...............

......COASTAL NC AND SC COUNTIES......

CITY           SKY/WX    TMP DP  RH WIND       PRES   REMARKS
WILMINGTON     SUNNY     78  63  59 NE12      29.90S
SOUTHPORT      SUNNY     77  62  59 N6        29.90S
N MYRTLE BEACH PTSUNNY   78  63  59 NE14      29.90F
MYRTLE BEACH   MOSUNNY   77  63  61 N12       29.91S

......INLAND NC AND SC COUNTIES.......

CITY           SKY/WX    TMP DP  RH WIND       PRES   REMARKS
LUMBERTON      SUNNY     76  61  59 NE7       29.93S
ELIZABETHTOWN  MOSUNNY   75  62  62 CALM      29.93S
WHITEVILLE     SUNNY     75  63  66 N3        29.92S
FLORENCE       MOSUNNY   77  60  55 NE10      29.94S
DARLINGTON     SUNNY     75  61  60 NE8       29.96S

....................REST OF NORTH CAROLINA......................

.........EASTERN NC.........

CITY           SKY/WX    TMP DP  RH WIND       PRES   REMARKS
CAPE HATTERAS  SUNNY     81  67  62 NE8       29.88S
JACKSONVILLE   SUNNY     75  61  60 N12       29.92S
MOREHEAD CITY  SUNNY     79  67  66 N12       29.89R
KENANSVILLE    SUNNY     74  60  60 NE5       29.94S
NEW BERN       SUNNY     76  63  64 N10       29.92S
ELIZABETH CITY CLOUDY    75  64  68 N8        29.91S

.........CENTRAL NC.........

CITY           SKY/WX    TMP DP  RH WIND       PRES   REMARKS
RALEIGH DURHAM MOSUNNY   72  58  61 NE8       29.96F
ROCKY MOUNT    PTSUNNY   73  60  63 N10       29.94S
ROANOKE RAPIDS NOT AVBL
FAYETTEVILLE   CLOUDY    77  60  55 VRB7      29.94S
HOFFMAN        PTSUNNY   75  57  54 NE9G16    29.97S

.........WESTERN NC.........

CITY           SKY/WX    TMP DP  RH WIND       PRES   REMARKS
CHARLOTTE      SUNNY     75  55  49 N8        29.99S
GREENSBORO     MOSUNNY   73  56  54 VRB6      29.98F
HICKORY        NOT AVBL
BOONE          NOT AVBL
ASHEVILLE      NOT AVBL

.....................REST OF SOUTH CAROLINA.....................

.........EASTERN SC.........

CITY           SKY/WX    TMP DP  RH WIND       PRES   REMARKS
CHARLESTON     SUNNY     82  62  50 NE10      29.91S
BEAUFORT MCAS  SUNNY     81  64  56 E12       29.92R
HILTON HEAD    NOT AVBL

.........CENTRAL SC.........

CITY           SKY/WX    TMP DP  RH WIND       PRES   REMARKS
COLUMBIA       MOSUNNY   82  57  42 VRB6      29.95S
ORANGEBURG     MOSUNNY   77  59  53 NE10      29.95R
SUMTER SHAW    SUNNY     77  60  55 NE12      29.94R

.........WESTERN SC.........

CITY           SKY/WX    TMP DP  RH WIND       PRES   REMARKS
GREENVILLE     NOT AVBL
ROCK HILL      SUNNY     75  58  55 VRB7      29.99S
ANDERSON       SUNNY     78  57  48 VRB3      29.99S
CLEMSON        NOT AVBL
GREENWOOD      MOSUNNY   75  58  55 NE7       30.00R


...................COASTAL AND OFFSHORE REPORTS..................

................LOCAL PIERS AND NC RESERVE................


STATION/POSITION TIME  SKY/WX   TEMP    WIND        PRES    VSBY
                                AIR SEA DIR/SP/G
                 (UTC)          (F)     (DEG/KT/KT) (MB)    (MI)
JOHNY MRCER PIER 1400            76 82   10/ 11/ 13 1011.8R
NC RESRV MASNBRO 1300            75      10/  3     1012.0S
OCEAN CREST PIER 1400            77 83  360/  9/ 14 1011.3S
SPRINGMAID  PIER 1400            76 83  360/  8/ 11 1012.6S


................COASTAL AND OFFSHORE BUOYS................


STATION/POSITION TIME  SKY/WX   TEMP    WIND        PRES    VSBY
                                AIR SEA DIR/SP/G
                 (UTC)          (F)     (DEG/KT/KT) (MB)    (MI)
DIMNDSHOAL 41025 1400                   VRB 12/ 14  1011.4R
WVE H/P(F/S)=  3/ 8 WND WVE H/P(F/S)=  2/ 5 SWL H/P/D(F/S/D)=  2/150/ 8

CAPE LOOKOUT     1300            77     360/ 11/ 14 1011.4F
ONSLOW BAY 41036 1400            77 81   20/ 14/ 17 1011.8R
WVE H/P(F/S)=  4/ 6 WND WVE H/P(F/S)=  3/ 6

5 WRITEBCH 41038 1300            72 81   30/ 14/ 16   N/A
MASONBORO  41110 1400               81                N/A
WVE H/P(F/S)=  3/ 7 WND WVE H/P(F/S)=  3/ 7

WILM HARBR 41108 NOT AVBL
27WRITEBCH 41037 1300            75 82   10/ 16/ 19 1011.3R
FRYING PAN 41013 NOT AVBL
SUNST NRSH 41024 1300            76      10/ 14/ 16 1012.2R
CAPRS NRSH 41029 1300            78      40/ 16/ 21   N/A
EDISTO     41004 1400            82 83   40/ 14/ 14 1010.7R
WVE H/P(F/S)=  4/ 6 WND WVE H/P(F/S)=  3/ 6 SWL H/P/D(F/S/D)=  2/ 8



..........OFFSHORE BUOYS BEYOND 100 NM OFFSHORE...........
.....IN A TRIANGLE---HAT TO BERMUDA TO BAHAMAS TO HAT.....


STATION/POSITION TIME  SKY/WX   TEMP    WIND        PRES    VSBY
                                AIR SEA DIR/SP/G
                 (UTC)          (F)     (DEG/KT/KT) (MB)    (MI)
150E HAT   41001 NOT AVBL
W BERMUDA  41048 1338            82 82  190/ 19/ 23 1017.0R
WVE H/P(F/S)=  6/ 7 WND WVE H/P(F/S)=  5/ 7 SWL H/P/D(F/S/D)=  2/150/ 9

ATLANTIC S 41049 1309            82 83  150/ 12/ 16 1021.4R
WVE H/P(F/S)=  4/ 5 WND WVE H/P(F/S)=  3/ 5 SWL H/P/D(F/S/D)=  2/120/ 9

E BAHAMAS  41046 1331            82 84  130/ 10/ 12 1018.7R
WVE H/P(F/S)=  4/ 8 WND WVE H/P(F/S)=  2/ 4 SWL H/P/D(F/S/D)=  3/120/ 8

NE BAHAMAS 41047 1348            82 85  180/ 14/ 17 1018.4R
WVE H/P(F/S)=  3/ 8 WND WVE H/P(F/S)=  2/ 6 SWL H/P/D(F/S/D)=  2/130/ 8

120E CANVRL41010 1400            83 84  250/ 19/ 23 1013.6F
WVE H/P(F/S)=  5/ 6 WND WVE H/P(F/S)=  5/ 6 SWL H/P/D(F/S/D)=  2/130/ 9


END



USA.gov is the U.S. government's official web portal to all federal, state and local government web resources and services.